This is the latest recevied weather packets stored in our database for station/object NQ9F. If no packets are shown the sender has not sent any weather packets the latest 10 day(s).
| Time | Temp. | Humidity | Pressure | Rain* | Wind** | Luminosity | Snow |
|---|---|---|---|---|---|---|---|
| 1777585225 | 16.11° C | 83% | 1013.4 hPa | 0 mm | - | 164 W/m² | - |
| 1777584921 | 16.11° C | 84% | 1013.5 hPa | 0 mm | - | 143 W/m² | - |
| 1777584618 | 16.11° C | 84% | 1013.9 hPa | 0 mm | - | 89 W/m² | - |
| 1777584315 | 16.11° C | 84% | 1013.8 hPa | 0 mm | - | 81 W/m² | - |
| 1777584011 | 16.11° C | 84% | 1013.9 hPa | 0 mm | - | 81 W/m² | - |
| 1777583705 | 16.11° C | 84% | 1013.9 hPa | 0 mm | - | 62 W/m² | - |
| 1777583405 | 16.11° C | 83% | 1014.2 hPa | 0 mm | - | 67 W/m² | - |
| 1777583104 | 16.11° C | 84% | 1014.1 hPa | 0 mm | - | 87 W/m² | - |
| 1777582800 | 16.11° C | 83% | 1014.5 hPa | 0 mm | - | 74 W/m² | - |
| 1777582496 | 16.11° C | 83% | 1014.4 hPa | 0 mm | - | 86 W/m² | - |
| 1777582191 | 16.67° C | 83% | 1014.2 hPa | 0 mm | - | 136 W/m² | - |
| 1777581889 | 16.67° C | 84% | 1014.1 hPa | 0 mm | - | 263 W/m² | - |
| 1777581584 | 16.11° C | 84% | 1014 hPa | 0 mm | - | 206 W/m² | - |
| 1777581279 | 16.11° C | 85% | 1014 hPa | 0 mm | - | 202 W/m² | - |
| 1777580975 | 16.11° C | 85% | 1013.9 hPa | 0 mm | - | 157 W/m² | - |
| 1777580673 | 16.11° C | 85% | 1014.1 hPa | 0 mm | - | 113 W/m² | - |
| 1777580369 | 16.11° C | 86% | 1014.3 hPa | 0 mm | - | 86 W/m² | - |
| 1777580066 | 16.11° C | 87% | 1014.5 hPa | 0 mm | - | 68 W/m² | - |
| 1777579762 | 16.11° C | 88% | 1014.3 hPa | 0 mm | - | 57 W/m² | - |
| 1777579460 | 16.11° C | 88% | 1014.4 hPa | 0 mm | - | 57 W/m² | - |
| 1777579156 | 16.11° C | 88% | 1013.9 hPa | 0 mm | - | 125 W/m² | - |
| 1777578851 | 16.11° C | 88% | 1013.9 hPa | 0 mm | - | 106 W/m² | - |
| 1777578546 | 16.11° C | 89% | 1014.4 hPa | 0 mm | - | 71 W/m² | - |
| 1777578241 | 16.11° C | 89% | 1014.7 hPa | 0 mm | - | 71 W/m² | - |
| 1777577937 | 16.11° C | 89% | 1014.8 hPa | 0 mm | - | 47 W/m² | - |
* Rain latest hour (hover to see other rain measurements)
** Current wind speed in m/s (hover to see current wind gust speed)